[[{"header":{"parameterUnit":"m.s-1","parameterCategory":1,"la1":30.2991,"la2":30.254,"lo1":-89.0895,"lo2":-89.0444,"dy":0.0017,"dx":0.0017,"nx":28,"ny":28,"refTime":"2025-08-08T21:00:00:Z","depth":0,"parameterNumber":2,"parameterNumberName":"U-component_of_WINDS"},"data":[0,0,0,0,0,0,0,0,0,0,0,0,0,0,0,0,0,0,0,0,0,0,0,0,0,0,0,0,0,0,0,0,0,0,0,0,0,0,0,0,0,0,0,0,0,0,0,0,0,0,0,0,0,0,0,0,0,0,-3.6315,-3.6315,0,-3.6358,-3.6359,-3.6359,-3.6253,-3.6249,-3.6246,-3.6243,-3.6293,-3.6297,-3.6301,0,0,0,0,0,0,0,0,0,0,0,0,0,-3.6143,-3.6147,-3.6315,-3.6315,-3.6316,-3.6358,-3.6359,-3.636,-3.6253,-3.6249,-3.6245,-3.6241,-3.6291,-3.6296,-3.6302,0,0,0,0,0,0,0,0,0,0,0,0,0,-3.6205,-3.6148,-3.6314,-3.6268,-3.6264,-3.6358,-3.6359,-3.636,-3.6254,-3.6249,-3.6244,-3.6239,-3.6289,-3.6296,-3.6303,-3.6446,0,0,-3.6323,-3.6326,0,0,0,0,0,0,0,0,-3.6202,-3.6212,-3.6274,-3.6271,-3.6267,-3.6295,-3.6317,-3.6389,-3.6256,-3.6258,-3.6243,-3.6237,-3.6298,-3.6304,-3.6323,-3.6448,-3.645,-3.6324,-3.6328,-3.6331,-3.6333,0,0,0,0,0,0,0,-3.6198,-3.6209,-3.6332,-3.6275,-3.6271,-3.6246,-3.6249,-3.633,-3.6306,-3.6258,-3.625,-3.6256,-3.6295,-3.6317,-3.6323,-3.6451,-3.6323,-3.6329,-3.6334,-3.6336,-3.6697,-3.6702,0,0,0,0,0,0,-3.6199,-3.6206,-3.6331,-3.6333,-3.6221,-3.6253,-3.6257,-3.6291,-3.6305,-3.6302,-3.6261,-3.6251,-3.6308,-3.6316,-3.6325,-3.6494,-3.6331,-3.6337,-3.6341,-3.6691,-3.6698,-3.6704,0,0,0,0,0,0,-3.6196,-3.6211,-3.6329,-3.6268,-3.6281,-3.6261,-3.6301,-3.6295,-3.6316,-3.6307,-3.6303,-3.6287,-3.6304,-3.6315,-3.6416,-3.6494,-3.634,-3.6346,-3.6685,-3.6693,-3.6701,-3.6833,0,0,0,0,0,0,-3.6191,-3.621,-3.6263,-3.627,-3.6285,-3.6419,-3.6306,-3.6299,-3.6328,-3.6316,-3.6331,-3.6328,-3.6301,-3.6407,-3.6423,-3.6501,-3.6351,-3.6678,-3.6689,-3.6698,-3.6822,-3.6845,-3.6865,0,0,0,0,0,-3.6185,-3.63,-3.6267,-3.6282,-3.635,-3.6423,-3.6432,-3.6397,-3.6334,-3.6388,-3.6383,-3.6328,-3.6483,-3.6418,-3.6435,-3.6516,-3.6673,-3.6685,-3.6698,-3.6812,-3.6841,-3.6865,0,0,0,0,0,0,-3.6305,-3.63,-3.6263,-3.6383,-3.6404,-3.6405,-3.6472,-3.6428,-3.6468,-3.6456,-3.6412,-3.6416,-3.6526,-3.6531,-3.6459,-3.6656,-3.6567,-3.6584,-3.6649,-3.6676,-3.6697,-3.6694,-3.6357,0,0,0,0,0,-3.6344,-3.6403,-3.6396,-3.6502,-3.6515,-3.6492,-3.6522,-3.6493,-3.6514,-3.6523,-3.6525,-3.6549,-3.6602,-3.6639,-3.6688,-3.6822,-3.6825,-3.6886,-3.6908,-3.6925,-3.6941,-3.7013,-3.7041,-3.6745,-3.6745,-3.6745,0,0,-3.6428,-3.6433,-3.6473,-3.6526,-3.6539,-3.6602,-3.65,-3.6571,-3.6618,-3.6534,-3.663,-3.6632,-3.6656,-3.6774,-3.6826,-3.6782,-3.7023,-3.6941,-3.6956,-3.6961,-3.7029,-3.7057,-3.7082,-3.6753,-3.6752,-3.6751,0,0,-3.6613,-3.6622,-3.6711,-3.6727,-3.6747,-3.6731,-3.6753,-3.6761,-3.6759,-3.6854,-3.6793,-3.6849,-3.6942,-3.6962,-3.6984,-3.7177,-3.7129,-3.7194,-3.7307,-3.7378,-3.7402,-3.7422,-3.7492,-3.7518,-3.7209,-3.721,-3.721,0,-3.6715,-3.6805,-3.6764,-3.6839,-3.6865,-3.6791,-3.6883,-3.69,-3.6937,-3.6957,-3.6906,-3.7022,-3.7033,-3.7156,-3.7203,-3.7223,-3.7248,-3.7193,-3.7401,-3.7421,-3.744,-3.7506,-3.7533,-3.7218,-3.7217,-3.7216,-3.7215,0,-3.693,-3.6994,-3.7064,-3.71,-3.7134,-3.7218,-3.719,-3.723,-3.7198,-3.7188,-3.7286,-3.7296,-3.7347,-3.7373,-3.7344,-3.7492,-3.7464,-3.7408,-3.7318,-3.7477,-3.7538,-3.7563,-3.7229,-3.7226,-3.7224,-3.7222,0,0,-3.7191,-3.7203,-3.723,-3.7245,-3.7263,-3.7313,-3.7393,-3.7441,-3.7476,-3.7504,-3.7572,-3.7653,-3.7601,-3.7627,-3.7599,-3.7661,-3.7814,-3.7597,-3.7597,-3.7638,-3.798,-3.8023,-3.8053,-3.7782,-3.7787,-3.7791,-3.7979,0,-3.7374,-3.751,-3.7476,-3.7612,-3.7672,-3.7603,-3.7673,-3.7693,-3.7686,-3.7736,-3.7729,-3.7788,-3.7714,-3.7729,-3.7788,-3.7783,-3.7883,-3.7769,-3.7846,-3.7849,-3.7843,-3.8085,-3.813,-3.8307,-3.8002,-3.8006,-3.8009,0,-3.7606,-3.7642,-3.7784,-3.7792,-3.7816,-3.788,-3.7921,-3.797,-3.7991,-3.7982,-3.8011,-3.797,-3.8051,-3.796,-3.8072,-3.7996,-3.8026,-3.8028,-3.8034,-3.8041,-3.794,-3.8099,-3.8362,-3.839,-3.8047,-3.8044,-3.8041,0,-3.7783,-3.7867,-3.7963,-3.7979,-3.7991,-3.8037,-3.8045,-3.8061,-3.8092,-3.8129,-3.8149,-3.8196,-3.8222,-3.8259,-3.8233,-3.8169,-3.8351,-3.8257,-3.8347,-3.8348,-3.8389,-3.8387,-3.8662,-3.8407,-3.8406,-3.8406,-3.8405,0,-3.7992,-3.8082,-3.8043,-3.8102,-3.8201,-3.8161,-3.8261,-3.8261,-3.8276,-3.8335,-3.8279,-3.8336,-3.8297,-3.8352,-3.8332,-3.8429,-3.8441,-3.8437,-3.8431,-3.8442,-3.8443,-3.8462,-3.8449,-3.8413,-3.8411,-3.841,-3.8408,0,-3.8207,-3.8184,-3.8285,-3.8288,-3.8291,-3.8364,-3.8368,-3.8423,-3.8412,-3.8488,-3.8503,-3.8487,-3.8548,-3.8525,-3.8591,-3.8578,-3.8701,-3.8679,-3.8694,-3.8689,-3.878,-3.8772,-3.9077,-3.9116,-3.8835,-3.8838,-3.884,0,-3.8342,-3.8409,-3.842,-3.8454,-3.8466,-3.8523,-3.8554,-3.8518,-3.8553,-3.8583,-3.8636,-3.8692,-3.8734,-3.8836,-3.8831,-3.8881,-3.886,-3.8963,-3.8867,-3.8877,-3.8863,-3.8859,-3.8866,-3.8983,-3.8986,-3.8989,-3.8991,0,-3.8584,-3.8569,-3.8616,-3.866,-3.8699,-3.8731,-3.8759,-3.8792,-3.8757,-3.88,-3.8861,-3.8894,-3.8961,-3.9018,-3.9063,-3.9072,-3.9027,-3.9021,-3.9045,-3.9058,-3.9064,-3.9063,-3.8747,-3.9014,-3.9012,-3.901,-3.9009,-3.9008,-3.8763,-3.882,-3.8837,-3.8891,-3.8908,-3.8936,-3.8988,-3.8984,-3.9034,-3.9084,-3.906,-3.9131,-3.9152,-3.9208,-3.9224,-3.928,-3.924,-3.9274,-3.9283,-3.9292,-3.9304,-3.9054,-3.9288,-3.9288,-3.9287,-3.9286,-3.9286,0,-3.9003,-3.901,-3.9061,-3.9101,-3.9145,-3.9096,-3.9125,-3.9165,-3.9228,-3.925,-3.9293,-3.9365,-3.942,-3.9419,-3.9471,-3.9516,-3.9497,-3.9531,-3.9528,-3.9531,-3.9337,-3.9311,-3.9546,-3.9546,-3.9546,-3.9546,-3.9546,-3.9546,-3.9133,-3.9227,-3.9215,-3.9318,-3.9324,-3.9393,-3.9414,-3.944,-3.9457,-3.9539,-3.9584,-3.9582,-3.9596,-3.9648,-3.9697,-3.9696,-3.9718,-3.976,-3.9752,-3.957,-3.9544,-3.952,-3.9496,-3.9765,-3.9766,-3.9941,-3.9943,-3.9944]},{"header":{"parameterUnit":"m.s-1","parameterCategory":1,"la1":30.2991,"la2":30.254,"lo1":-89.0895,"lo2":-89.0444,"dy":0.0017,"dx":0.0017,"nx":28,"ny":28,"refTime":"2025-08-08T21:00:00:Z","depth":0,"parameterNumber":3,"parameterNumberName":"V-component_of_WINDS"},"data":[0,0,0,0,0,0,0,0,0,0,0,0,0,0,0,0,0,0,0,0,0,0,0,0,0,0,0,0,0,0,0,0,0,0,0,0,0,0,0,0,0,0,0,0,0,0,0,0,0,0,0,0,0,0,0,0,0,0,-1.6781,-1.678,0,-1.668,-1.6679,-1.6678,-1.6585,-1.6584,-1.6582,-1.6581,-1.6477,-1.6475,-1.6474,0,0,0,0,0,0,0,0,0,0,0,0,0,-1.689,-1.6889,-1.6781,-1.678,-1.6778,-1.668,-1.6679,-1.6678,-1.6585,-1.6583,-1.6582,-1.6581,-1.6478,-1.6476,-1.6473,0,0,0,0,0,0,0,0,0,0,0,0,0,-1.6821,-1.6888,-1.6781,-1.672,-1.6714,-1.6681,-1.6679,-1.6677,-1.6585,-1.6583,-1.6582,-1.658,-1.6478,-1.6476,-1.6473,-1.6492,0,0,-1.6465,-1.6464,0,0,0,0,0,0,0,0,-1.6825,-1.6818,-1.6731,-1.6724,-1.6717,-1.6643,-1.6679,-1.6615,-1.6586,-1.6634,-1.6581,-1.6579,-1.6534,-1.6526,-1.6511,-1.6487,-1.6482,-1.6465,-1.6464,-1.6462,-1.6462,0,0,0,0,0,0,0,-1.683,-1.6821,-1.6741,-1.6729,-1.6721,-1.6697,-1.6686,-1.6667,-1.6595,-1.663,-1.6623,-1.6612,-1.653,-1.6514,-1.6508,-1.6481,-1.6465,-1.6463,-1.6461,-1.646,-1.6465,-1.6467,0,0,0,0,0,0,-1.6845,-1.6826,-1.6744,-1.6738,-1.6768,-1.6697,-1.6684,-1.6669,-1.6595,-1.6582,-1.6614,-1.6608,-1.6519,-1.6511,-1.6504,-1.652,-1.6462,-1.646,-1.6459,-1.6463,-1.6465,-1.6467,0,0,0,0,0,0,-1.6847,-1.6838,-1.6748,-1.678,-1.6767,-1.6697,-1.6681,-1.6668,-1.6652,-1.6582,-1.6569,-1.6611,-1.6517,-1.6508,-1.6495,-1.6516,-1.6459,-1.6457,-1.6461,-1.6464,-1.6466,-1.6554,0,0,0,0,0,0,-1.6851,-1.684,-1.6847,-1.6781,-1.6765,-1.6742,-1.6682,-1.6667,-1.6648,-1.664,-1.6577,-1.6564,-1.6515,-1.65,-1.6493,-1.6511,-1.6455,-1.6459,-1.6463,-1.6466,-1.6549,-1.6559,-1.6568,0,0,0,0,0,-1.6855,-1.6876,-1.6848,-1.6838,-1.6773,-1.6744,-1.6735,-1.6678,-1.665,-1.6656,-1.6611,-1.6566,-1.6514,-1.6499,-1.6491,-1.6509,-1.6458,-1.6462,-1.6465,-1.6545,-1.6557,-1.6568,0,0,0,0,0,0,-1.6946,-1.6866,-1.6834,-1.6834,-1.6796,-1.6728,-1.6734,-1.6693,-1.6663,-1.6657,-1.6587,-1.6574,-1.6569,-1.6537,-1.6522,-1.6522,-1.648,-1.6482,-1.6543,-1.6554,-1.6564,-1.6572,-1.6452,0,0,0,0,0,-1.6966,-1.6949,-1.688,-1.6886,-1.6869,-1.6805,-1.679,-1.675,-1.6708,-1.6692,-1.6646,-1.6606,-1.6581,-1.6566,-1.6538,-1.6543,-1.6528,-1.6551,-1.6561,-1.6569,-1.6572,-1.6572,-1.6581,-1.648,-1.648,-1.6479,0,0,-1.7007,-1.6961,-1.6955,-1.6904,-1.687,-1.6854,-1.6792,-1.6778,-1.6765,-1.6689,-1.6675,-1.664,-1.6591,-1.6588,-1.6584,-1.6561,-1.6596,-1.6574,-1.6581,-1.6579,-1.6576,-1.6586,-1.6595,-1.6482,-1.6482,-1.6481,0,0,-1.7074,-1.7038,-1.7039,-1.7006,-1.6955,-1.6912,-1.6913,-1.685,-1.6824,-1.6808,-1.6751,-1.6734,-1.6692,-1.6659,-1.6637,-1.669,-1.6647,-1.6683,-1.6733,-1.6733,-1.6741,-1.6748,-1.6767,-1.6774,-1.6686,-1.6686,-1.6686,0,-1.7131,-1.7106,-1.7045,-1.7034,-1.7012,-1.6942,-1.6943,-1.6913,-1.6857,-1.6843,-1.6818,-1.6763,-1.6725,-1.6713,-1.6726,-1.671,-1.6708,-1.669,-1.6745,-1.6751,-1.6757,-1.6774,-1.6781,-1.6691,-1.669,-1.669,-1.6689,0,-1.7179,-1.7161,-1.7168,-1.7115,-1.7094,-1.7089,-1.7027,-1.7013,-1.6974,-1.6933,-1.6918,-1.6869,-1.6831,-1.6825,-1.6787,-1.6807,-1.6794,-1.6758,-1.6715,-1.6772,-1.6787,-1.6793,-1.6697,-1.6696,-1.6694,-1.6693,0,0,-1.7302,-1.7214,-1.7218,-1.7192,-1.7131,-1.7116,-1.7107,-1.7069,-1.7059,-1.7021,-1.7011,-1.6976,-1.6942,-1.6917,-1.6874,-1.6875,-1.692,-1.6838,-1.6836,-1.6856,-1.6938,-1.6967,-1.6975,-1.6891,-1.6892,-1.6892,-1.6943,0,-1.7359,-1.7339,-1.7283,-1.7281,-1.7264,-1.7196,-1.7188,-1.7149,-1.711,-1.7089,-1.7045,-1.7022,-1.6979,-1.6963,-1.6961,-1.6915,-1.6936,-1.691,-1.6881,-1.688,-1.6896,-1.6983,-1.7013,-1.7063,-1.6948,-1.6949,-1.695,0,-1.7423,-1.739,-1.7386,-1.7324,-1.7315,-1.7309,-1.727,-1.7251,-1.7204,-1.7176,-1.7147,-1.71,-1.7085,-1.7044,-1.7023,-1.7007,-1.6991,-1.6967,-1.6967,-1.6963,-1.692,-1.6982,-1.7077,-1.7086,-1.6958,-1.6958,-1.6957,0,-1.7514,-1.7468,-1.746,-1.744,-1.7368,-1.7365,-1.7334,-1.7286,-1.7267,-1.7232,-1.7218,-1.7182,-1.7163,-1.7135,-1.7079,-1.7054,-1.7064,-1.7018,-1.704,-1.7041,-1.7046,-1.7047,-1.7141,-1.7035,-1.7035,-1.7034,-1.7034,0,-1.7584,-1.7584,-1.7499,-1.7494,-1.7492,-1.7427,-1.7426,-1.7389,-1.7346,-1.7332,-1.7271,-1.7259,-1.7184,-1.7163,-1.7118,-1.7108,-1.7099,-1.7075,-1.7064,-1.7081,-1.7085,-1.7071,-1.7066,-1.7036,-1.7036,-1.7035,-1.7035,0,-1.7686,-1.7629,-1.7615,-1.7547,-1.753,-1.7531,-1.7473,-1.7465,-1.7421,-1.7404,-1.7396,-1.7329,-1.7301,-1.7241,-1.7196,-1.7166,-1.7166,-1.7145,-1.7183,-1.7175,-1.72,-1.7199,-1.729,-1.7299,-1.7187,-1.7188,-1.7189,0,-1.7735,-1.7733,-1.7665,-1.7652,-1.7624,-1.7602,-1.7582,-1.7517,-1.7498,-1.7445,-1.7443,-1.741,-1.738,-1.7338,-1.7285,-1.725,-1.7228,-1.7262,-1.7222,-1.724,-1.7229,-1.723,-1.7229,-1.7271,-1.7273,-1.7274,-1.7275,0,-1.7828,-1.78,-1.7773,-1.7737,-1.7715,-1.7683,-1.7648,-1.764,-1.7566,-1.7548,-1.7519,-1.7496,-1.745,-1.7418,-1.7375,-1.7342,-1.7297,-1.7288,-1.7291,-1.731,-1.7332,-1.732,-1.7208,-1.7286,-1.7285,-1.7284,-1.7284,-1.7283,-1.7905,-1.79,-1.7852,-1.7824,-1.779,-1.7759,-1.7748,-1.7703,-1.7677,-1.7636,-1.7598,-1.7572,-1.7524,-1.7462,-1.7432,-1.741,-1.7387,-1.7392,-1.7393,-1.7396,-1.7403,-1.7335,-1.7402,-1.7401,-1.7401,-1.7401,-1.74,0,-1.7995,-1.796,-1.7936,-1.7888,-1.7866,-1.7825,-1.7783,-1.7767,-1.7745,-1.7704,-1.7676,-1.7642,-1.761,-1.7554,-1.7517,-1.751,-1.7488,-1.7503,-1.7503,-1.7496,-1.7426,-1.7427,-1.7521,-1.7521,-1.7521,-1.7521,-1.7521,-1.7521,-1.804,-1.803,-1.7996,-1.7968,-1.7932,-1.7906,-1.7886,-1.7856,-1.7823,-1.7788,-1.7761,-1.7724,-1.7677,-1.7636,-1.7604,-1.7588,-1.7578,-1.76,-1.7577,-1.7512,-1.7501,-1.749,-1.7491,-1.7598,-1.7598,-1.7649,-1.765,-1.765]}]]